GW4609 Weather Reports


time (UTC)temp
F
wind
direction
speed
knots
gust
knots
rain 1hr
in
rain 24hr
in
rain mn
in
humidity
%
barometer
mb
20260504082002 39 81 0.0 0.0 0.00 0.00 0.00 86 1012.3
20260504081500 39 81 0.0 0.0 0.00 0.00 0.00 86 1012.3
20260504080956 39 81 0.9 0.9 0.00 0.00 0.00 87 1012.2
20260504080452 39 81 0.9 0.9 0.00 0.00 0.00 87 1012.2
20260504050253 37 298 0.0 0.0 0.00 0.00 0.00 86 1013.3
20260504045745 37 298 0.0 0.0 0.00 0.00 0.00 86 1013.1
20260504045244 37 298 0.0 0.0 0.00 0.00 0.00 85 1013.1
20260504044742 37 298 0.0 0.0 0.00 0.00 0.00 84 1013.2
20260504044239 37 299 0.0 0.9 0.00 0.00 0.00 83 1012.9
20260504043736 37 298 0.0 0.0 0.00 0.00 0.00 83 1013.2
20260504043233 37 299 0.0 0.0 0.00 0.00 0.00 82 1012.8
20260504042731 38 299 0.0 0.0 0.00 0.00 0.00 82 1013.0
20260504042227 38 298 0.0 0.0 0.00 0.00 0.00 81 1013.3
20260504041723 38 298 0.0 0.0 0.00 0.00 0.00 82 1013.4
20260504041220 38 298 0.0 0.0 0.00 0.00 0.00 80 1012.9
20260504040716 38 298 0.0 0.0 0.00 0.00 0.00 80 1013.1
20260504040214 39 302 0.0 0.0 0.00 0.00 0.00 80 1013.2
20260504035710 39 302 0.0 0.0 0.00 0.00 0.00 80 1013.2
20260504035207 39 302 0.0 0.0 0.00 0.00 0.00 80 1013.0
20260504034704 39 302 0.0 0.0 0.00 0.00 0.00 80 1013.2
20260504034201 40 307 0.0 0.0 0.00 0.00 0.00 80 1013.2
20260504033659 40 306 0.0 0.9 0.00 0.00 0.00 79 1013.1
20260504033156 40 305 0.0 0.0 0.00 0.00 0.00 82 1013.1
20260504032652 40 307 0.0 0.0 0.00 0.00 0.00 80 1013.2
20260504032150 41 307 0.0 0.0 0.00 0.00 0.00 79 1013.1
20260504031647 41 312 0.0 0.9 0.00 0.00 0.00 78 1012.9
20260504031143 41 294 0.0 0.0 0.00 0.00 0.00 74 1012.9
20260504030640 41 278 0.0 0.0 0.00 0.00 0.00 73 1013.1
20260504030137 41 277 0.0 0.9 0.00 0.00 0.00 74 1013.1
20260504025633 41 297 0.0 0.9 0.00 0.00 0.00 73 1013.0
20260504025130 42 256 0.0 0.0 0.00 0.00 0.00 72 1013.0
20260504024628 42 256 0.0 0.0 0.00 0.00 0.00 71 1013.1
20260504024124 42 256 0.0 0.0 0.00 0.00 0.00 72 1012.9
20260504023621 42 259 0.0 0.0 0.00 0.00 0.00 73 1013.1
20260504023117 43 277 0.0 0.0 0.00 0.00 0.00 73 1013.1
20260504022613 43 274 0.0 0.9 0.00 0.00 0.00 72 1012.9
20260504022109 44 250 0.0 0.9 0.00 0.00 0.00 73 1013.0
20260504021607 44 290 0.0 0.9 0.00 0.00 0.00 72 1013.1
20260504021104 43 296 0.0 0.9 0.00 0.00 0.00 73 1012.8
20260504020601 44 296 0.0 0.9 0.00 0.00 0.00 74 1013.0
20260504020057 44 305 0.0 0.9 0.00 0.00 0.00 75 1013.0
20260504015553 44 295 0.0 0.0 0.00 0.00 0.00 74 1013.0
20260504015049 44 294 0.0 0.0 0.00 0.00 0.00 73 1012.8
20260504014546 44 295 0.0 0.9 0.00 0.00 0.00 74 1012.7
20260504014043 44 307 0.0 0.9 0.00 0.00 0.00 69 1012.8
20260504013541 44 307 0.0 0.9 0.00 0.00 0.00 73 1012.8
20260504013037 44 291 0.0 0.0 0.00 0.00 0.00 74 1012.5
20260504012535 45 308 0.9 0.9 0.00 0.00 0.00 72 1012.3
20260504012033 45 299 0.0 0.9 0.00 0.00 0.00 72 1012.4
20260504011529 46 303 0.0 0.9 0.00 0.00 0.00 68 1012.3
20260504011025 46 299 0.0 0.0 0.00 0.00 0.00 70 1012.3
20260504010521 46 295 0.0 0.9 0.00 0.00 0.00 70 1012.4
20260504010017 46 315 0.0 0.9 0.00 0.00 0.00 71 1012.3
20260504005514 47 266 0.0 0.9 0.00 0.00 0.00 65 1012.1
20260504005012 47 243 0.0 0.9 0.00 0.00 0.00 64 1012.3
20260504004509 47 257 0.0 0.9 0.00 0.00 0.00 63 1012.4
20260504004006 48 281 0.0 0.9 0.00 0.00 0.00 62 1012.3
20260504003502 48 276 0.9 0.9 0.00 0.00 0.00 59 1012.2
20260504002959 49 270 0.9 0.9 0.00 0.00 0.00 57 1012.2
20260504002456 49 303 0.9 0.9 0.00 0.00 0.00 58 1012.0
20260504001953 50 254 0.0 0.9 0.00 0.00 0.00 53 1012.1
20260504001451 50 250 0.0 1.7 0.00 0.00 0.00 55 1012.1
20260504000947 51 291 0.0 1.7 0.00 0.00 0.00 53 1012.2
20260504000444 51 272 0.0 0.9 0.00 0.00 0.00 50 1012.0
20260503235942 52 293 0.0 0.9 0.00 0.00 0.00 52 1012.3
20260503235439 54 296 0.9 0.9 0.00 0.00 0.00 51 1011.9
20260503234936 56 323 0.9 1.7 0.00 0.00 0.00 42 1012.1
20260503234434 57 279 1.7 2.6 0.00 0.00 0.00 41 1012.0
20260503233932 58 126 1.7 2.6 0.00 0.00 0.00 33 1011.7
20260503233428 58 338 1.7 2.6 0.00 0.00 0.00 35 1012.0
20260503232925 59 282 0.0 3.5 0.00 0.00 0.00 33 1012.0
20260503232422 59 57 1.7 2.6 0.00 0.00 0.00 31 1012.0
20260503231920 60 305 0.0 5.2 0.00 0.00 0.00 32 1012.0
20260503231417 60 335 1.7 6.1 0.00 0.00 0.00 30 1012.0
20260503230913 60 306 0.9 1.7 0.00 0.00 0.00 33 1012.0
20260503230409 60 312 3.5 5.2 0.00 0.00 0.00 32 1012.0
20260503225907 61 280 3.5 5.2 0.00 0.00 0.00 30 1011.9
20260503225403 61 282 4.3 6.1 0.00 0.00 0.00 29 1012.0
20260503224859 61 357 0.0 3.5 0.00 0.00 0.00 32 1011.9
20260503224357 62 318 1.7 3.5 0.00 0.00 0.00 28 1011.9
20260503223854 63 348 0.9 2.6 0.00 0.00 0.00 28 1011.8
20260503223352 62 298 1.7 3.5 0.00 0.00 0.00 29 1011.6
20260503222847 62 233 0.9 5.2 0.00 0.00 0.00 30 1011.9
20260503222346 62 51 0.9 5.2 0.00 0.00 0.00 31 1011.9
20260503221843 63 72 0.9 5.2 0.00 0.00 0.00 30 1011.6
20260503221342 62 313 3.5 5.2 0.00 0.00 0.00 31 1011.7
20260503220837 63 24 0.9 2.6 0.00 0.00 0.00 31 1011.7
20260503220335 63 259 2.6 2.6 0.00 0.00 0.00 27 1012.0
20260503215832 63 74 0.9 1.7 0.00 0.00 0.00 31 1011.9
20260503215329 62 332 1.7 7.0 0.00 0.00 0.00 30 1012.1
20260503214827 63 312 1.7 5.2 0.00 0.00 0.00 30 1012.1
20260503214324 63 298 0.9 5.2 0.00 0.00 0.00 30 1012.1
20260503213821 62 283 0.9 7.0 0.00 0.00 0.00 28 1011.9
20260503213319 63 16 0.9 5.2 0.00 0.00 0.00 30 1012.0
20260503212815 63 330 1.7 7.0 0.00 0.00 0.00 28 1012.0
20260503212313 62 64 0.9 5.2 0.00 0.00 0.00 31 1012.0
20260503211810 63 224 1.7 7.8 0.00 0.00 0.00 30 1012.1
20260503211307 62 249 0.9 5.2 0.00 0.00 0.00 32 1012.1
20260503210807 61 7 1.7 5.2 0.00 0.00 0.00 30 1012.1
20260503210305 63 357 5.2 8.7 0.00 0.00 0.00 29 1012.2
20260503205759 63 50 0.9 7.8 0.00 0.00 0.00 30 1012.2
20260503205256 63 318 3.5 5.2 0.00 0.00 0.00 30 1012.1
20260503204753 62 256 3.5 6.1 0.00 0.00 0.00 28 1012.1
20260503204251 62 329 2.6 2.6 0.00 0.00 0.00 29 1012.1
20260503203748 62 321 0.9 3.5 0.00 0.00 0.00 31 1012.2
20260503203245 62 339 1.7 7.0 0.00 0.00 0.00 29 1012.4
20260503202742 61 317 2.6 6.1 0.00 0.00 0.00 32 1012.6
20260503202240 59 324 1.7 6.1 0.00 0.00 0.00 32 1012.3
20260503201737 61 347 2.6 8.7 0.00 0.00 0.00 29 1012.5
20260503201235 62 314 3.5 8.7 0.00 0.00 0.00 31 1012.4
20260503200731 62 232 2.6 5.2 0.00 0.00 0.00 34 1012.4
20260503200228 61 55 1.7 5.2 0.00 0.00 0.00 32 1012.7
20260503195724 62 322 4.3 11.3 0.00 0.00 0.00 31 1012.8
20260503195221 61 335 2.6 3.5 0.00 0.00 0.00 34 1012.7
20260503194719 61 319 0.9 7.8 0.00 0.00 0.00 31 1013.1
20260503194215 61 317 1.7 7.0 0.00 0.00 0.00 31 1013.0
20260503193711 61 60 2.6 6.1 0.00 0.00 0.00 34 1012.9
20260503193207 61 356 1.7 6.1 0.00 0.00 0.00 32 1012.9
20260503192703 62 341 3.5 7.8 0.00 0.00 0.00 32 1013.3
20260503192158 62 61 3.5 5.2 0.00 0.00 0.00 33 1013.1
20260503191655 60 130 1.7 12.2 0.00 0.00 0.00 31 1013.2
20260503191152 61 268 5.2 8.7 0.00 0.00 0.00 31 1013.3
20260503190649 60 308 3.5 3.5 0.00 0.00 0.00 32 1013.2
20260503190146 60 291 3.5 7.8 0.00 0.00 0.00 31 1013.3
20260503185642 60 150 0.0 1.7 0.00 0.00 0.00 35 1013.5
20260503185138 60 316 1.7 6.1 0.00 0.00 0.00 34 1013.5
20260503184633 60 162 2.6 6.1 0.00 0.00 0.00 36 1013.6
20260503184130 59 84 2.6 5.2 0.00 0.00 0.00 34 1013.8
20260503183626 61 82 3.5 5.2 0.00 0.00 0.00 34 1013.5
20260503183124 60 298 2.6 7.8 0.00 0.00 0.00 31 1013.8
20260503182622 60 340 3.5 6.1 0.00 0.00 0.00 32 1013.5
20260503182120 60 70 4.3 7.8 0.00 0.00 0.00 31 1013.8
20260503181616 60 341 5.2 7.8 0.00 0.00 0.00 32 1013.7
20260503181113 59 310 0.9 7.0 0.00 0.00 0.00 39 1013.7
20260503180610 59 118 4.3 8.7 0.00 0.00 0.00 33 1014.0
20260503180108 58 284 7.8 13.9 0.00 0.00 0.00 36 1013.9
20260503175604 59 55 1.7 3.5 0.00 0.00 0.00 36 1014.1
20260503175102 58 34 1.7 2.6 0.00 0.00 0.00 38 1014.0
20260503174559 59 83 2.6 7.8 0.00 0.00 0.00 35 1014.2
20260503174055 59 291 1.7 3.5 0.00 0.00 0.00 37 1014.0
20260503173550 58 330 4.3 7.0 0.00 0.00 0.00 33 1014.1
20260503173047 58 57 1.7 7.8 0.00 0.00 0.00 36 1014.4
20260503172544 58 83 1.7 7.0 0.00 0.00 0.00 37 1014.2
20260503172041 57 171 1.7 6.1 0.00 0.00 0.00 33 1014.5
20260503171538 57 78 1.7 6.1 0.00 0.00 0.00 35 1014.2
20260503171035 56 280 6.1 11.3 0.00 0.00 0.00 37 1014.6
20260503170531 58 275 0.9 7.8 0.00 0.00 0.00 32 1014.4
20260503150924 51 329 4.3 8.7 0.00 0.00 0.00 41 1016.0
20260503150421 50 328 3.5 11.3 0.00 0.00 0.00 42 1015.9
20260503131314 47 301 3.5 7.0 0.00 0.00 0.00 56 1016.0
20260503130811 46 56 3.5 6.1 0.00 0.00 0.00 56 1015.9
20260503130309 46 98 3.5 7.0 0.00 0.00 0.00 57 1015.9
20260503110702 31 305 0.0 0.0 0.00 0.00 0.00 96 1015.2
20260503110159 31 313 0.0 0.0 0.00 0.00 0.00 96 1015.3
20260503100126 31 303 0.0 0.9 0.00 0.00 0.00 94 1014.7